User: anonymous   Login
Location: Unspecified
(0.0000°N, 0.0000°E)
Time: 06:04:25
(UTC+00:00)
Language:

TANYUSHA 1 - Orbit

View from above orbital plane
View from above orbital plane
View from above satellite
View from above satellite

Ground track
Ground track

The orbit data is extracted from the following two-line orbital elements,

1 42911U 98067NA  19083.84052369  .00053937  00000-0  26773-3 0  9990
2 42911  51.6288   8.3202 0004848 165.7165 295.6314 15.81411048 91518
Epoch (UTC): 24 March 2019 20:10:21
Eccentricity: 0.0004848
inclination: 51.6288°
perigee height: 323 km
apogee height: 330 km
right ascension of ascending node: 8.3202°
argument of perigee: 165.7165°
revolutions per day: 15.81411048
mean anomaly at epoch: 295.6314°
orbit number at epoch: 9151

The dashed part of the orbit path shows where the satellite is in the earth's shadow,  

DLR